User: anonymous   Login
Location: Pine Mountain Observatory
(43.7910°N, 120.9377°W)
Time: 09:29:14
(UTC-07:00)
Language:

Cosmos 1076 Rocket - Orbit

View from above orbital plane
View from above orbital plane
View from above satellite
View from above satellite

Ground track
Ground track

The orbit data is extracted from the following two-line orbital elements,

1 11267U 79011B   17147.87087630 +.00000097 +00000-0 +76411-5 0  9994
2 11267 082.5264 248.6568 0015522 299.9999 059.9678 14.88838063051241
Epoch (UTC): 27 May 2017 20:54:03
Eccentricity: 0.0015522
inclination: 82.5264°
perigee height: 591 km
apogee height: 612 km
right ascension of ascending node: 248.6568°
argument of perigee: 299.9999°
revolutions per day: 14.88838063
mean anomaly at epoch: 59.9678°
orbit number at epoch: 5124

The dashed part of the orbit path shows where the satellite is in the earth's shadow,  

DLR